Regional Weather Roundup
Issued by NWS

Home | Current Version | Previous Version | Graphics & Text | Print | Product List | Glossary On
Versions: 1 2 3 4 5 6 7 8 9 10 11 12 13 14 15 16 17 18 19 20 21 22 23 24 25 26 27 28 29 30 31 32 33 34 35 36 37 38 39 40 41 42 43 44 45 46 47 48 49 50
000
ASUS45 KBOU 032210
RWRCO

WEATHER ROUNDUP FOR COLORADO
NATIONAL WEATHER SERVICE DENVER/BOULDER CO
400 PM MDT FRI JUL 03 2015

NOTE: "FAIR" INDICATES FEW OR NO CLOUDS BELOW 12000 FEET WITH NO
SIGNIFICANT WEATHER AND/OR OBSTRUCTIONS TO VISIBILITY.

COZ001>005-013-030-031-032300-
...NORTHWEST COLORADO...

CITY           SKY/WX    TMP DP  RH WIND       PRES   REMARKS
CRAIG          MOSUNNY   88  37  16 E7        30.09F
HAYDEN         MOSUNNY   84  36  17 S3        30.13F
MEEKER         MOSUNNY   87  45  23 MISG      30.11F
MOUNT WERNER   NOT AVBL
STEAMBOAT SPGS MOSUNNY   85  40  20 CALM      30.16F
WALDEN         MOSUNNY   79  30  17 NW3       30.27F
$$

COZ006>008-011-032300-
...WEST CENTRAL VALLEYS...

CITY           SKY/WX    TMP DP  RH WIND       PRES   REMARKS
GRAND JUNCTION MOSUNNY   94  45  18 NW10      29.96F
MONTROSE       PTSUNNY   84  51  31 W8        30.08S
EAGLE          MOSUNNY   84  45  24 NE5       30.15F
RIFLE          PTSUNNY   80  52  37 W8        30.05F
DELTA          CLOUDY    88  56  34 SE10      30.02S
NUCLA          PTSUNNY   90  43  19 CALM      30.11F
$$

COZ017>023-064>068-032300-
...SOUTHWEST COLORADO...

CITY           SKY/WX    TMP DP  RH WIND       PRES   REMARKS
DURANGO        PTSUNNY   82  48  30 W12       30.16F
CORTEZ         SUNNY     88  48  25 SW7       30.10F
PAGOSA SPRINGS TSTM      60  50  67 W3G16     30.30R
TELLURIDE      PTSUNNY   75  44  33 W13G21    30.36F THUNDER
WOLF CREEK PAS NOT AVBL
$$

COZ009-010-012-014-032>034-037-058>063-032300-
...CENTRAL COLORADO...

CITY           SKY/WX    TMP DP  RH WIND       PRES   REMARKS
ASPEN          PTSUNNY   81  41  24 VRB3      30.24S
BUENA VISTA    MOSUNNY   74  44  33 S13G20    30.26F
COPPER MTN     CLOUDY    59  34  38 N12G28    30.62S
BERTHOUD PASS  FAIR      50  39  66 E9        30.66S
COTTONWOOD PAS NOT AVBL
GUNNISON       PTSUNNY   73  48  40 N8        30.27F
KREMMLING      SUNNY     90  18   7 NW9       30.20F
LEADVILLE      PTSUNNY   67  33  28 W9G18     30.42F
MONARCH PASS   PTSUNNY   59  41  51 E18       30.70S THUNDER
SALIDA         CLOUDY    73  51  46 N9G22     30.33R
SUNLIGHT       CLOUDY    63  43  48 W6        30.53F
WILKERSON PASS MOSUNNY   63  45  51 E8        30.57S
$$

COZ069>075-032300-
...SAN LUIS VALLEY/SANGRE DE CRISTO MOUNTAINS...

CITY           SKY/WX    TMP DP  RH WIND       PRES   REMARKS
ALAMOSA        MOSUNNY   79  46  31 VRB5      30.23F
LA VETA PASS   TSTM      59  54  82 MISG      30.45F
SAGUACHE       PTSUNNY   75  50  41 CALM      30.28F
$$

COZ035-036-038>040-032300-
...NORTHERN COLORADO FRONT RANGE...

CITY           SKY/WX    TMP DP  RH WIND       PRES   REMARKS
DENVER INTL AP MOSUNNY   84  56  38 E7        30.10F
DMNS CITY PARK   N/A     82  52  35 S2        30.10F
AURORA         MOSUNNY   82  57  42 S5        30.12F
FRONT RANGE AP PTSUNNY   82  57  42 CALM      30.12F
ERIE MUNI ARPT SUNNY     84  51  31 E5        30.09F
BOULDER MUN AP SUNNY     82  55  39 S5        30.10F
CENTENNIAL     MOSUNNY   79  55  43 N3        30.14F
BROOMFIELD     MOSUNNY   82  54  36 CALM      30.15F
FORT COLLINS   SUNNY     82  59  44 S6        30.06F
LONGMONT       SUNNY     85  56  38 W8        30.10F
$$

COZ041-046-047-076>085-087-088-032300-
...PIKES PEAK/PALMER DIVIDE AND SOUTHERN FOOTHILLS...

CITY           SKY/WX    TMP DP  RH WIND       PRES   REMARKS
COLO. SPRINGS  MOSUNNY   81  54  39 SE8       30.17F
A. F. ACADEMY  MOSUNNY   79  55  43 S10       30.18F
ELLICOTT       MOSUNNY  N/A N/A N/A SE9       30.16F
FALCON         MOSUNNY   79  50  36 SE8       30.23F
FORT CARSON    SUNNY     81  56  42 E8        30.14F
LIMON          SUNNY     80  56  43 VRB5      30.12F
MONUMENT HILL  NOT AVBL
TRINIDAD       MOSUNNY   84  55  36 SW8       30.11F
$$

COZ042>045-048>051-090-091-032300-
...NORTHEAST COLORADO...

CITY           SKY/WX    TMP DP  RH WIND       PRES   REMARKS
GREELEY ARPT   SUNNY     84  59  42 E6        30.07F
AKRON          SUNNY     82  56  40 CALM      30.08F
BURLINGTON     SUNNY     85  53  33 VRB3      30.06F
WRAY           MOSUNNY   88  51  27 CALM      30.03F
STERLING       SUNNY     84  57  39 W3          N/A
HOLYOKE        SUNNY     86  54  32 SE3       30.04F
FORT MORGAN    SUNNY     85  52  32 E3        30.07F
$$

COZ086-089-092>099-032300-
...SOUTHEAST COLORADO...

CITY           SKY/WX    TMP DP  RH WIND       PRES   REMARKS
PUEBLO         MOSUNNY   87  55  33 S7        30.04F
LA JUNTA       SUNNY     90  58  33 E12       30.01F
LAMAR          SUNNY     90  59  35 E8        29.98F
SPRINGFIELD      N/A     82  56  40 S24       30.06S
$$


USA.gov is the U.S. government's official web portal to all federal, state and local government web resources and services.